• In Czech Republic
  • List of Countries
  • For 7 days
  • Water Temperature
  • Satellite Maps
  • Weather Map
  • Weather Widgets
  • user-avatar
    Login

    Hourly Weather Edmonton

    Today, 26 February, Monday

    Time Temperature Precipitation Wind Pressure Humidity
    00:00 -12°C° 0 mm 3 mps 692 mmHg 93%
    01:00 -13°C° 0 mm 3 mps 692 mmHg 94%
    02:00 -14°C° 0 mm 3 mps 693 mmHg 94%
    03:00 -14°C° 0 mm 2 mps 693 mmHg 95%
    04:00 -15°C° 0 mm 2 mps 694 mmHg 95%
    05:00 -15°C° 0 mm 2 mps 694 mmHg 95%
    06:00 -15°C° 0 mm 2 mps 695 mmHg 94%
    07:00 -15°C° 0 mm 2 mps 695 mmHg 94%
    08:00 -13°C° 0 mm 2 mps 696 mmHg 93%
    09:00 -12°C° 0 mm 2 mps 696 mmHg 92%
    10:00 -9°C° 0 mm 2 mps 696 mmHg 90%
    11:00 -8°C° 0 mm 3 mps 696 mmHg 88%
    12:00 -7°C° 0 mm 3 mps 696 mmHg 86%
    13:00 -5°C° 0 mm 3 mps 696 mmHg 83%
    14:00 -6°C° 0 mm 3 mps 696 mmHg 84%
    15:00 -6°C° 0 mm 3 mps 696 mmHg 84%
    16:00 -6°C° 0 mm 3 mps 695 mmHg 84%
    17:00 -7°C° 0 mm 3 mps 695 mmHg 83%
    18:00 -9°C° 0 mm 4 mps 695 mmHg 81%
    19:00 -10°C° 0 mm 4 mps 695 mmHg 79%
    20:00 -10°C° 0 mm 4 mps 695 mmHg 79%
    21:00 -10°C° 0 mm 4 mps 695 mmHg 78%
    22:00 -10°C° 0 mm 4 mps 694 mmHg 77%
    23:00 -10°C° 0 mm 4 mps 694 mmHg 76%

    Tomorrow, 27 February, Tuesday

    Time Temperature Precipitation Wind Pressure Humidity
    00:00 -9°C° 0 mm 4 mps 694 mmHg 76%
    01:00 -9°C° 0 mm 4 mps 694 mmHg 75%
    02:00 -8°C° 0 mm 4 mps 694 mmHg 76%
    03:00 -8°C° 0 mm 5 mps 693 mmHg 78%
    04:00 -7°C° 0 mm 5 mps 693 mmHg 80%
    05:00 -8°C° 0 mm 5 mps 693 mmHg 79%
    06:00 -8°C° 0 mm 5 mps 692 mmHg 78%
    07:00 -8°C° 0 mm 5 mps 692 mmHg 77%
    08:00 -7°C° 0 mm 5 mps 692 mmHg 75%
    09:00 -5°C° 0 mm 6 mps 692 mmHg 74%
    10:00 -4°C° 0 mm 6 mps 692 mmHg 73%
    11:00 -4°C° 0 mm 6 mps 692 mmHg 73%
    12:00 -3°C° 0 mm 6 mps 692 mmHg 73%
    13:00 -3°C° 0 mm 7 mps 692 mmHg 73%
    14:00 -3°C° 0 mm 6 mps 692 mmHg 73%
    15:00 -4°C° 0 mm 5 mps 692 mmHg 74%
    16:00 -4°C° 0 mm 4 mps 693 mmHg 75%
    17:00 -5°C° 0 mm 4 mps 693 mmHg 75%
    18:00 -7°C° 0 mm 4 mps 693 mmHg 75%
    19:00 -9°C° 0 mm 4 mps 694 mmHg 76%
    20:00 -9°C° 0 mm 4 mps 694 mmHg 76%
    21:00 -10°C° 0 mm 4 mps 694 mmHg 76%
    22:00 -10°C° 0 mm 4 mps 694 mmHg 76%
    23:00 -10°C° 0 mm 4 mps 694 mmHg 76%

    Day after tomorrow, 28 February, Wednesday

    Time Temperature Precipitation Wind Pressure Humidity
    00:00 -10°C° 0 mm 4 mps 694 mmHg 77%
    01:00 -10°C° 0 mm 4 mps 694 mmHg 77%
    02:00 -10°C° 0 mm 4 mps 694 mmHg 78%
    03:00 -10°C° 0 mm 4 mps 694 mmHg 79%
    04:00 -10°C° 0 mm 4 mps 694 mmHg 79%
    05:00 -10°C° 0 mm 4 mps 694 mmHg 80%
    06:00 -11°C° 0 mm 4 mps 695 mmHg 81%
    07:00 -11°C° 0 mm 4 mps 695 mmHg 82%
    08:00 -10°C° 0 mm 4 mps 695 mmHg 82%
    09:00 -8°C° 0 mm 4 mps 696 mmHg 81%
    10:00 -7°C° 0 mm 4 mps 696 mmHg 81%
    11:00 -5°C° 0 mm 3 mps 696 mmHg 79%
    12:00 -5°C° 0 mm 3 mps 697 mmHg 78%
    13:00 -4°C° 0 mm 3 mps 697 mmHg 77%
    14:00 -4°C° 0 mm 2 mps 697 mmHg 78%
    15:00 -5°C° 0 mm 2 mps 697 mmHg 80%
    16:00 -3°C° 0 mm 1 mps 697 mmHg 81%
    17:00 -6°C° 0 mm 1 mps 697 mmHg 81%
    18:00 -7°C° 0 mm 1 mps 697 mmHg 81%
    19:00 -9°C° 0 mm 1 mps 697 mmHg 81%
    20:00 -10°C° 0 mm 2 mps 697 mmHg 82%
    21:00 -12°C° 0 mm 2 mps 698 mmHg 83%
    22:00 -12°C° 0 mm 2 mps 698 mmHg 85%
    23:00 -14°C° 0 mm 3 mps 698 mmHg 86%

    1 March, Thursday

    Time Temperature Precipitation Wind Pressure Humidity
    00:00 -14°C° 0 mm 3 mps 698 mmHg 88%
    01:00 -15°C° 0 mm 3 mps 698 mmHg 89%
    02:00 -15°C° 0 mm 3 mps 698 mmHg 91%
    03:00 -16°C° 0 mm 4 mps 699 mmHg 92%
    04:00 -16°C° 0 mm 4 mps 699 mmHg 93%
    05:00 -15°C° 0 mm 4 mps 700 mmHg 93%
    06:00 -15°C° 0 mm 4 mps 700 mmHg 94%
    07:00 -15°C° 0 mm 5 mps 701 mmHg 95%
    08:00 -14°C° 0.1 mm 5 mps 701 mmHg 94%
    09:00 -13°C° 0.1 mm 5 mps 701 mmHg 94%
    10:00 -14°C° 0.1 mm 6 mps 702 mmHg 94%
    11:00 -12°C° 0.2 mm 6 mps 702 mmHg 94%
    12:00 -12°C° 0.2 mm 6 mps 702 mmHg 93%
    13:00 -12°C° 0.2 mm 7 mps 702 mmHg 93%
    14:00 -12°C° 0.5 mm 7 mps 702 mmHg 92%
    15:00 -12°C° 0.5 mm 7 mps 703 mmHg 92%
    16:00 -12°C° 0.5 mm 7 mps 703 mmHg 92%
    17:00 -12°C° 0.6 mm 7 mps 703 mmHg 92%
    18:00 -12°C° 0.6 mm 7 mps 703 mmHg 92%
    19:00 -12°C° 0.6 mm 7 mps 704 mmHg 93%
    20:00 -12°C° 0.4 mm 7 mps 704 mmHg 92%
    21:00 -13°C° 0.4 mm 7 mps 704 mmHg 92%
    22:00 -13°C° 0.4 mm 7 mps 704 mmHg 92%
    23:00 -13°C° 0.3 mm 7 mps 704 mmHg 92%

    2 March, Friday

    Time Temperature Precipitation Wind Pressure Humidity
    00:00 -13°C° 0.3 mm 7 mps 704 mmHg 92%
    01:00 -14°C° 0.3 mm 7 mps 704 mmHg 92%
    02:00 -14°C° 0.5 mm 7 mps 704 mmHg 92%
    03:00 -14°C° 0.5 mm 7 mps 704 mmHg 92%
    04:00 -14°C° 0.5 mm 7 mps 704 mmHg 93%
    05:00 -14°C° 0.7 mm 7 mps 704 mmHg 93%
    06:00 -15°C° 0.7 mm 7 mps 704 mmHg 94%
    07:00 -15°C° 0.7 mm 6 mps 704 mmHg 94%
    08:00 -14°C° 0.9 mm 6 mps 704 mmHg 94%
    09:00 -14°C° 0.9 mm 6 mps 704 mmHg 94%
    10:00 -14°C° 0.9 mm 7 mps 705 mmHg 94%
    11:00 -12°C° 0.5 mm 6 mps 704 mmHg 93%
    12:00 -12°C° 0.5 mm 6 mps 704 mmHg 93%
    13:00 -12°C° 0.5 mm 6 mps 704 mmHg 92%
    14:00 -12°C° 0.6 mm 6 mps 704 mmHg 93%
    15:00 -12°C° 0.6 mm 6 mps 704 mmHg 93%
    16:00 -12°C° 0.6 mm 5 mps 704 mmHg 94%
    17:00 -12°C° 0.5 mm 5 mps 704 mmHg 94%
    18:00 -12°C° 0.5 mm 5 mps 704 mmHg 94%
    19:00 -12°C° 0.5 mm 5 mps 705 mmHg 95%
    20:00 -11°C° 0.8 mm 5 mps 705 mmHg 95%
    21:00 -11°C° 0.8 mm 5 mps 705 mmHg 95%
    22:00 -10°C° 0.8 mm 4 mps 705 mmHg 95%
    23:00 -11°C° 0.6 mm 5 mps 705 mmHg 95%

    3 March, Saturday

    Time Temperature Precipitation Wind Pressure Humidity
    00:00 -12°C° 0.6 mm 5 mps 705 mmHg 95%
    01:00 -12°C° 0.6 mm 5 mps 705 mmHg 95%
    02:00 -12°C° 0.6 mm 5 mps 705 mmHg 95%
    03:00 -12°C° 0.6 mm 5 mps 705 mmHg 95%
    04:00 -11°C° 0.6 mm 4 mps 705 mmHg 96%
    05:00 -12°C° 0.4 mm 4 mps 705 mmHg 95%
    06:00 -13°C° 0.4 mm 5 mps 705 mmHg 95%
    07:00 -13°C° 0.4 mm 5 mps 705 mmHg 95%
    08:00 -13°C° 0.3 mm 5 mps 705 mmHg 94%
    09:00 -13°C° 0.3 mm 5 mps 706 mmHg 94%
    10:00 -12°C° 0.3 mm 5 mps 706 mmHg 93%
    11:00 -12°C° 0.3 mm 6 mps 706 mmHg 93%
    12:00 -12°C° 0.3 mm 6 mps 706 mmHg 92%
    13:00 -11°C° 0.3 mm 6 mps 706 mmHg 91%
    14:00 -11°C° 0.3 mm 6 mps 706 mmHg 92%
    15:00 -11°C° 0.3 mm 6 mps 706 mmHg 92%
    16:00 -12°C° 0.3 mm 6 mps 706 mmHg 92%
    17:00 -12°C° 0.3 mm 6 mps 707 mmHg 92%
    18:00 -12°C° 0.3 mm 6 mps 707 mmHg 93%
    19:00 -14°C° 0.3 mm 6 mps 707 mmHg 93%
    20:00 -14°C° 0.2 mm 6 mps 707 mmHg 93%
    21:00 -14°C° 0.2 mm 6 mps 707 mmHg 93%
    22:00 -15°C° 0.2 mm 6 mps 707 mmHg 93%
    23:00 -15°C° 0.3 mm 6 mps 707 mmHg 93%
    Show more